Location: La Bastide
(43.1661°N, 1.2755°E)
Time: 07:21:45
(UTC+00:00)

SMAP - Visible Passes

Search period start: 11 March 2026 00:00
Search period end: 21 March 2026 00:00
Orbit: 681 x 683 km, 98.1° (Epoch: 10 March)

Date Brightness Start Highest point End Pass type
(mag) Time Alt. Az. Time Alt. Az. Time Alt. Az.
11 Mar 6.9 18:54:44 10° WSW 18:55:50 11° W 18:56:56 10° WNW visible
12 Mar 6.2 05:09:49 10° NE 05:12:57 18° E 05:16:04 10° SE visible
13 Mar 6.2 18:27:58 10° SW 18:31:17 19° W 18:34:37 10° NW visible
15 Mar 5.9 05:21:36 10° NE 05:25:19 23° E 05:29:00 10° SSE visible
16 Mar 6.4 18:41:06 10° SW 18:43:39 15° W 18:46:13 10° WNW visible
17 Mar 6.4 04:58:33 10° ENE 05:00:47 13° E 05:03:00 10° ESE visible
19 Mar 6.9 18:54:58 10° WSW 18:56:02 11° W 18:57:05 10° WNW visible
20 Mar 6.2 05:10:01 10° NE 05:13:09 18° E 05:16:16 10° SE visible
